Location: Choisy
(48.7685°N, 2.4187°E)
Time: 18:48:48
(UTC+00:00)

Envisat - Pass Details

Date: 04 March 2024
Orbit: 762 x 764 km, 98.3° (Epoch: 23 April)

Event Time Altitude Azimuth Distance (km) Brightness Sun altitude
Rises 01:48:27 0° 31° (NNE) 3,242 7.1 -41.9°
Reaches altitude 10° 01:52:05 10° 58° (ENE) 2,308 6.1 -41.6°
Enters shadow 01:53:14 12° 70° (ENE) 2,145 5.8 -41.5°
